TimePST,TemperatureF,Dew PointF,Humidity,Sea Level PressureIn,VisibilityMPH,Wind Direction,Wind SpeedMPH,Gust SpeedMPH,PrecipitationIn,Events,Conditions,WindDirDegrees,DateUTC
12:15 AM,23.0,23.0,100,30.66,7.0,Calm,Calm,-,N/A,,Clear,0,2013-01-16 08:15:00
12:35 AM,24.8,24.8,100,30.65,8.0,Calm,Calm,-,N/A,,Clear,0,2013-01-16 08:35:00
12:55 AM,23.0,23.0,100,30.66,8.0,Calm,Calm,-,N/A,,Clear,0,2013-01-16 08:55:00
1:15 AM,23.0,23.0,100,30.66,8.0,Calm,Calm,-,N/A,,Clear,0,2013-01-16 09:15:00
1:35 AM,24.8,24.8,100,30.65,9.0,Calm,Calm,-,N/A,,Clear,0,2013-01-16 09:35:00
1:55 AM,23.0,23.0,100,30.66,9.0,Calm,Calm,-,N/A,,Clear,0,2013-01-16 09:55:00
2:15 AM,23.0,23.0,100,30.66,10.0,Calm,Calm,-,N/A,,Clear,0,2013-01-16 10:15:00
2:35 AM,23.0,23.0,100,30.66,10.0,Calm,Calm,-,N/A,,Clear,0,2013-01-16 10:35:00
2:55 AM,24.8,24.8,100,30.65,10.0,Calm,Calm,-,N/A,,Clear,0,2013-01-16 10:55:00
3:15 AM,23.0,23.0,100,30.66,9.0,Calm,Calm,-,N/A,,Clear,0,2013-01-16 11:15:00
3:35 AM,23.0,23.0,100,30.65,10.0,Calm,Calm,-,N/A,,Clear,0,2013-01-16 11:35:00
3:55 AM,23.0,23.0,100,30.65,9.0,Calm,Calm,-,N/A,,Clear,0,2013-01-16 11:55:00
4:15 AM,23.0,23.0,100,30.65,10.0,Calm,Calm,-,N/A,,Clear,0,2013-01-16 12:15:00
4:35 AM,23.0,21.2,93,30.65,10.0,Calm,Calm,-,N/A,,Clear,0,2013-01-16 12:35:00
4:55 AM,21.2,21.2,100,30.64,10.0,Calm,Calm,-,N/A,,Clear,0,2013-01-16 12:55:00
5:15 AM,21.2,21.2,100,30.64,10.0,Calm,Calm,-,N/A,,Clear,0,2013-01-16 13:15:00
5:35 AM,23.0,23.0,100,30.63,10.0,Calm,Calm,-,N/A,,Clear,0,2013-01-16 13:35:00
5:55 AM,21.2,21.2,100,30.63,10.0,Calm,Calm,-,N/A,,Clear,0,2013-01-16 13:55:00
6:15 AM,21.2,21.2,100,30.63,10.0,Calm,Calm,-,N/A,,Clear,0,2013-01-16 14:15:00
6:35 AM,19.4,19.4,100,30.62,10.0,Calm,Calm,-,N/A,,Clear,0,2013-01-16 14:35:00
6:55 AM,21.2,21.2,100,30.62,10.0,Calm,Calm,-,N/A,,Clear,0,2013-01-16 14:55:00
7:15 AM,21.2,21.2,100,30.62,10.0,Calm,Calm,-,N/A,,Clear,0,2013-01-16 15:15:00
7:35 AM,19.4,19.4,100,30.62,10.0,Calm,Calm,-,N/A,,Clear,0,2013-01-16 15:35:00
7:55 AM,21.2,21.2,100,30.62,10.0,Calm,Calm,-,N/A,,Mostly Cloudy,0,2013-01-16 15:55:00
8:15 AM,23.0,23.0,100,30.63,10.0,Calm,Calm,-,N/A,,Overcast,0,2013-01-16 16:15:00
8:35 AM,24.8,24.8,100,30.63,1.0,Calm,Calm,-,N/A,,Overcast,0,2013-01-16 16:35:00
8:55 AM,26.6,26.6,100,30.63,0.2,Calm,Calm,-,N/A,Fog,Light Freezing Fog,0,2013-01-16 16:55:00
9:15 AM,26.6,26.6,100,30.63,0.2,Calm,Calm,-,N/A,Fog,Light Freezing Fog,0,2013-01-16 17:15:00
9:35 AM,28.4,28.4,100,30.63,0.2,Calm,Calm,-,N/A,Fog,Light Freezing Fog,0,2013-01-16 17:35:00
9:55 AM,30.2,30.2,100,30.62,1.5,Calm,Calm,-,N/A,,Scattered Clouds,0,2013-01-16 17:55:00
10:15 AM,32.0,32.0,100,30.62,0.5,Calm,Calm,-,N/A,Fog,Light Freezing Fog,0,2013-01-16 18:15:00
10:35 AM,32.0,32.0,100,30.61,6.0,Calm,Calm,-,N/A,Snow,Light Snow,0,2013-01-16 18:35:00
10:55 AM,33.8,33.8,100,30.61,8.0,Calm,Calm,-,N/A,,Clear,0,2013-01-16 18:55:00
11:15 AM,35.6,33.8,93,30.61,8.0,Calm,Calm,-,N/A,Snow,Light Snow,0,2013-01-16 19:15:00
11:35 AM,35.6,33.8,93,30.60,10.0,NNW,3.5,-,N/A,,Clear,340,2013-01-16 19:35:00
11:55 AM,35.6,32.0,87,30.60,10.0,NNW,3.5,-,N/A,,Clear,330,2013-01-16 19:55:00
12:15 PM,37.4,32.0,81,30.60,10.0,WNW,3.5,-,N/A,,Clear,300,2013-01-16 20:15:00
12:35 PM,39.2,32.0,75,30.59,10.0,Calm,Calm,-,N/A,,Clear,0,2013-01-16 20:35:00
12:55 PM,39.2,32.0,75,30.59,10.0,NW,4.6,-,N/A,,Clear,320,2013-01-16 20:55:00
1:15 PM,-9999,-9999,N/A,-9999,-9999.0,North,-9999.0,-,N/A,,Unknown,0,2013-01-16 21:15:00
1:35 PM,41.0,32.0,70,30.57,10.0,NNW,4.6,-,N/A,,Unknown,340,2013-01-16 21:35:00
1:55 PM,41.0,32.0,70,30.57,2.0,Calm,Calm,-,0.05,,Haze,0,2013-01-16 21:55:00
2:15 PM,41.0,32.0,70,30.56,10.0,Calm,Calm,-,0.04,,Clear,0,2013-01-16 22:15:00
2:35 PM,41.0,32.0,70,30.56,10.0,Calm,Calm,-,0.04,,Clear,0,2013-01-16 22:35:00
2:55 PM,41.0,32.0,70,30.55,10.0,NNW,3.5,-,0.04,,Clear,330,2013-01-16 22:55:00
3:15 PM,41.0,32.0,70,30.56,10.0,NNW,3.5,-,N/A,,Clear,340,2013-01-16 23:15:00
3:55 PM,39.2,32.0,75,30.55,10.0,Calm,Calm,-,N/A,,Clear,0,2013-01-16 23:55:00
4:15 PM,39.2,32.0,75,30.55,10.0,Calm,Calm,-,N/A,,Clear,0,2013-01-17 00:15:00
4:35 PM,37.4,32.0,81,30.55,10.0,Calm,Calm,-,N/A,,Clear,0,2013-01-17 00:35:00
4:55 PM,33.8,32.0,93,30.54,10.0,Calm,Calm,-,N/A,,Clear,0,2013-01-17 00:55:00
5:15 PM,32.0,30.2,93,30.54,10.0,Calm,Calm,-,N/A,,Clear,0,2013-01-17 01:15:00
5:35 PM,32.0,30.2,93,30.54,10.0,Calm,Calm,-,N/A,,Clear,0,2013-01-17 01:35:00
5:55 PM,30.2,30.2,100,30.54,10.0,Calm,Calm,-,N/A,,Clear,0,2013-01-17 01:55:00
6:15 PM,30.2,30.2,100,30.55,10.0,Calm,Calm,-,N/A,,Clear,0,2013-01-17 02:15:00
6:35 PM,30.2,30.2,100,30.54,8.0,Calm,Calm,-,N/A,,Clear,0,2013-01-17 02:35:00
6:55 PM,28.4,28.4,100,30.55,7.0,Calm,Calm,-,N/A,,Clear,0,2013-01-17 02:55:00
7:15 PM,28.4,28.4,100,30.54,8.0,Calm,Calm,-,N/A,,Clear,0,2013-01-17 03:15:00
7:35 PM,28.4,28.4,100,30.54,6.0,Calm,Calm,-,N/A,,Clear,0,2013-01-17 03:35:00
7:55 PM,26.6,26.6,100,30.53,4.0,Calm,Calm,-,N/A,,Clear,0,2013-01-17 03:55:00
8:15 PM,26.6,26.6,100,30.53,1.2,Calm,Calm,-,N/A,,Clear,0,2013-01-17 04:15:00
8:35 PM,26.6,26.6,100,30.52,5.0,Calm,Calm,-,N/A,,Clear,0,2013-01-17 04:35:00
8:55 PM,26.6,26.6,100,30.52,3.0,Calm,Calm,-,N/A,,Clear,0,2013-01-17 04:55:00
9:15 PM,26.6,26.6,100,30.52,6.0,Calm,Calm,-,N/A,,Clear,0,2013-01-17 05:15:00
9:35 PM,26.6,26.6,100,30.51,7.0,Calm,Calm,-,N/A,,Clear,0,2013-01-17 05:35:00
9:55 PM,26.6,26.6,100,30.51,6.0,Calm,Calm,-,N/A,,Clear,0,2013-01-17 05:55:00
10:15 PM,26.6,26.6,100,30.51,5.0,Calm,Calm,-,N/A,,Clear,0,2013-01-17 06:15:00
10:35 PM,24.8,24.8,100,30.50,5.0,Calm,Calm,-,N/A,,Clear,0,2013-01-17 06:35:00
10:55 PM,24.8,24.8,100,30.50,4.0,Calm,Calm,-,N/A,,Clear,0,2013-01-17 06:55:00
11:15 PM,24.8,24.8,100,30.51,5.0,Calm,Calm,-,N/A,,Clear,0,2013-01-17 07:15:00
11:35 PM,26.6,26.6,100,30.50,6.0,North,-9999.0,-,N/A,,Clear,0,2013-01-17 07:35:00